Dewpoint
24 24 24 23 23 23 22 23 24 24 24 24 24 25 25 25 25 25 24 24 23 22 22 23 23 23 23 23 23 22 22 21 22 22 22 22 22 22 21 21 21 21
24 24 24 23 24 24 22 22 23 23 23 24 24 24 25 25 25 25 24 23 23 22 22 22 23 22 22 22 22 21 21 21 21 22 21 21 21 21 21 21 21 22
24 24 23 22 22 22 22 22 22 22 23 23 23 24 24 25 24 24 24 23 23 22 22 22 22 22 22 22 22 21 21 21 21 22 22 21 21 21 21 22 22 22
24 23 23 22 22 21 21 21 21 22 22 23 22 23 24 24 24 23 23 24 22 21 21 21 21 21 21 21 21 21 21 21 21 22 21 22 22 22 22 22 22 22
23 23 22 22 22 22 21 20 20 21 21 21 22 22 23 23 23 23 22 22 21 21 20 21 20 20 21 21 21 20 21 21 22 22 21 21 22 22 22 22 22 21
22 22 22 21 21 21 20 19 19 20 20 20 21 22 21 22 22 22 22 21 21 20 20 20 20 20 20 20 20 19 21 21 22 22 21 21 22 22 22 22 22 21
22 22 22 21 21 20 19 19 18 20 19 19 20 21 21 21 21 21 21 21 20 20 20 20 19 19 20 20 20 19 21 21 22 22 21 21 22 22 22 22 21 21
21 21 21 21 20 20 20 19 18 18 18 19 19 20 20 20 21 21 21 21 20 20 19 19 19 19 19 19 19 19 20 21 21 21 21 21 21 21 21 21 21 20
20 21 21 21 20 20 19 19 18 18 19 18 18 19 20 20 20 20 21 20 20 19 19 19 19 19 19 19 19 19 20 20 21 21 20 20 20 20 20 20 19 19
19 20 20 20 20 20 19 19 18 18 19 18 18 18 19 20 20 20 20 20 20 19 19 18 18 18 19 19 19 19 19 20 20 20 20 20 20 19 19 19 19 18
19 19 19 19 20 20 19 19 18 18 18 18 18 18 18 19 20 20 20 20 19 19 19 18 18 18 18 19 19 19 19 19 20 20 19 19 19 19 21 18 18 17
19 19 19 19 19 19 19 19 19 18 18 18 18 18 18 19 19 19 20 19 19 19 18 18 18 18 18 18 18 19 19 19 19 19 19 18 18 18 18 17 17 16
18 19 19 19 19 19 19 19 18 18 19 19 19 18 18 18 19 19 20 19 19 18 18 18 18 18 18 18 18 18 18 19 19 19 18 18 18 17 17 16 16 15
18 19 19 19 19 19 19 19 19 19 19 19 19 18 19 19 19 19 19 19 18 18 18 18 18 18 18 18 18 18 18 18 18 18 17 17 17 17 16 16 15 15
19 19 19 20 21 20 21 20 20 20 20 20 20 19 19 19 19 19 19 19 18 18 18 18 18 18 18 18 18 18 18 18 18 17 17 16 16 16 15 15 15 14
20 20 20 21 21 21 21 21 20 21 21 21 21 20 20 20 19 19 19 19 19 18 18 18 18 18 21 24 23 18 18 18 18 17 16 16 15 15 14 14 13 13
21 21 21 22 22 22 23 22 22 22 22 21 21 21 21 21 20 20 19 19 19 18 18 18 18 18 24 27 26 25 19 18 17 17 16 15 15 14 14 13 13 12
23 23 23 23 23 24 24 24 23 22 21 22 21 21 21 21 20 20 19 19 19 19 18 18 18 23 27 28 28 27 24 17 17 16 16 15 14 14 13 12 11 11
23 24 24 24 24 24 23 23 23 22 22 22 21 21 21 21 20 20 19 19 19 18 18 18 18 24 27 29 28 28 26 21 17 16 16 15 13 13 12 11 11 11
24 25 24 24 23 23 23 23 22 22 22 21 21 21 21 21 20 20 20 19 18 18 18 18 18 25 28 29 29 29 27 23 16 16 15 14 12 12 12 11 12 12
24 24 24 23 23 23 22 22 22 22 22 21 21 20 20 20 20 20 20 20 19 19 19 18 17 25 28 29 29 28 27 23 15 15 14 13 12 12 12 13 13 14
22 22 22 21 21 21 21 22 22 22 21 21 20 20 20 20 20 20 20 19 19 19 18 18 16 26 29 29 29 29 28 18 15 14 13 13 13 12 13 14 14 15
21 21 21 21 21 21 21 22 22 21 21 20 20 20 20 20 20 20 19 19 19 18 18 17 17 25 28 29 29 29 26 15 14 14 14 13 13 14 14 15 15 15
22 22 23 22 22 21 21 22 21 21 21 20 20 19 19 19 19 18 19 18 18 17 17 16 16 23 28 29 28 29 23 15 14 14 14 14 15 15 16 16 16 19
22 23 24 22 22 22 21 21 21 21 20 19 19 19 19 19 18 17 17 17 17 17 19 16 16 22 28 28 29 29 22 15 14 14 15 15 16 16 16 15 14 19
20 23 23 22 22 21 21 21 20 19 18 18 18 18 17 17 16 16 16 15 16 15 16 16 15 18 25 27 29 29 25 16 16 15 15 16 16 16 15 15 15 16